Location: Shepherdstown, WV
(39.4326°N, 77.8042°W)
Time: 18:45:58
(UTC-04:00)

X-37B - Pass Details

Date: 24 June 2021
Orbit: 383 x 392 km, 45.0° (Epoch: 01 July)

Event Time Altitude Azimuth Distance (km) Brightness Sun altitude
Rises 00:16:12 0° 282° (WNW) 2,254 4.8 -25.7°
Reaches altitude 10° 00:18:27 10° 295° (WNW) 1,401 3.8 -25.8°
Enters shadow 00:19:26 17° 306° (NW) 1,074 3.3 -25.9°
